Location: Carrières
(48.9495°N, 2.0407°E)
Time: 20:45:37
(UTC+00:00)

Transit 2A Rocket - Pass Details

Date: 27 April 2024
Orbit: 585 x 908 km, 66.7° (Epoch: 18 May)

Event Time Altitude Azimuth Distance (km) Brightness Sun altitude
Rises 18:29:32 0° 322° (NW) 3,314 9.3 4.2°
Reaches altitude 10° 18:31:54 10° 320° (NW) 2,425 8.7 3.9°
Maximum altitude 18:37:30 66° 239° (WSW) 943 5.8 3.0°
Drops below altitude 10° 18:43:25 10° 159° (SSE) 2,563 7.4 2.1°
Sets 18:45:59 0° 156° (SSE) 3,516 8.0 1.7°
